Location: Bouchavesnes-Bergen
(49.9859°N, 2.9203°E)
Time: 03:29:08
(UTC+00:00)

Cosmos 2333 Rocket - Pass Details

Date: 09 March 2021
Orbit: 837 x 864 km, 70.8° (Epoch: 11 April)

Event Time Altitude Azimuth Distance (km) Brightness Sun altitude
Rises 02:35:33 0° 332° (NNW) 3,449 5.5 -33.8°
Reaches altitude 10° 02:38:14 10° 342° (NNW) 2,511 4.9 -33.5°
Maximum altitude 02:43:30 35° 47° (NE) 1,367 3.7 -32.8°
Drops below altitude 10° 02:48:46 10° 113° (ESE) 2,505 4.9 -32.2°
Sets 02:51:26 0° 122° (ESE) 3,438 5.6 -31.8°
